Change the Weather History Date:

Sunday, March 25, 2012

  Actual Average Record
Temperature  
Mean Temperature 32 °F -  
Max Temperature 39 °F 39 °F 70 °F (2003)
Min Temperature 24 °F 28 °F 10 °F (1962)
Degree Days  
Heating Degree Days 34    
Moisture  
Dew Point 17 °F    
Average Humidity 57    
Maximum Humidity 71    
Minimum Humidity 39    
Precipitation  
Precipitation 0.00 in - - ()
Sea Level Pressure  
Sea Level Pressure 29.76 in    
Wind  
Wind Speed 13 mph (North)    
Max Wind Speed 17 mph    
Max Gust Speed 25 mph    
Visibility 10 miles    
Events      
Averages and records for this station are not official NWS values.
T = Trace of Precipitation, MM = Missing Value Source: NWS Daily Summary

Daily Weather History Graph

Daily Weather History Graph

Search for Another Location

Airport or City:

Trip Planner

Search our weather history database for the weather conditions in past years. The results will help you decide how hot, cold, wet, or windy it might be!

Date:

Astronomy

Mar. 25, 2012 Rise Set
Actual Time 7:41 AM AKDT 8:26 PM AKDT
Civil Twilight 6:59 AM AKDT 9:08 PM AKDT
Nautical Twilight 6:08 AM AKDT 10:00 PM AKDT
Astronomical Twilight 5:10 AM AKDT 10:58 PM AKDT
Moon 8:01 AM AKDT (3/25) No Moon Set
Length of Visible Light 14h 09m
Length of Day
12h 44m
Waxing Crescent, 9% of the Moon is Illuminated
Mar 25
Waxing Crescent
Mar 30
First Quarter
Apr 6
Full
Apr 13
Last Quarter
Apr 20
New

Hourly Weather History & Observations

Time (AKDT) Temp. Windchill Dew Point Humidity Pressure Visibility Wind Dir Wind Speed Gust Speed Precip Events Conditions
12:53 AM 30.0 °F 20.0 °F 19.0 °F 64% 29.82 in 10.0 mi NNE 12.7 mph 23.0 mph N/A   Clear
1:53 AM 28.9 °F 17.7 °F 18.0 °F 64% 29.82 in 10.0 mi NNE 15.0 mph - N/A   Clear
2:53 AM 28.0 °F 18.1 °F 18.0 °F 66% 29.82 in 10.0 mi NNE 11.5 mph 21.9 mph N/A   Clear
3:53 AM 26.1 °F 14.5 °F 17.1 °F 69% 29.81 in 10.0 mi NNE 13.8 mph 20.7 mph N/A   Clear
4:53 AM 27.0 °F 15.2 °F 17.1 °F 66% 29.80 in 10.0 mi NNE 15.0 mph 25.3 mph N/A   Clear
5:53 AM 25.0 °F 12.2 °F 16.0 °F 69% 29.80 in 10.0 mi NNE 16.1 mph 24.2 mph N/A   Clear
6:53 AM 24.1 °F 12.0 °F 16.0 °F 71% 29.80 in 10.0 mi North 13.8 mph 24.2 mph N/A   Clear
7:53 AM 24.1 °F 10.6 °F 16.0 °F 71% 29.80 in 10.0 mi NNE 17.3 mph 23.0 mph N/A   Clear
8:53 AM 25.0 °F 12.2 °F 16.0 °F 69% 29.80 in 10.0 mi NNE 16.1 mph 24.2 mph N/A   Clear
9:53 AM 26.1 °F 14.0 °F 16.0 °F 66% 29.79 in 10.0 mi NNE 15.0 mph - N/A   Clear
10:53 AM 28.9 °F 16.9 °F 17.1 °F 61% 29.77 in 10.0 mi NE 17.3 mph 25.3 mph N/A   Clear
11:53 AM 32.0 °F 22.5 °F 18.0 °F 56% 29.77 in 10.0 mi North 12.7 mph 20.7 mph N/A   Clear
12:53 PM 35.1 °F 25.5 °F 19.0 °F 52% 29.76 in 10.0 mi North 15.0 mph - N/A   Clear
1:53 PM 37.0 °F 29.3 °F 18.0 °F 46% 29.74 in 10.0 mi NNW 11.5 mph 20.7 mph N/A   Clear
2:53 PM 37.9 °F 30.9 °F 17.1 °F 43% 29.74 in 10.0 mi NW 10.4 mph - N/A   Clear
3:53 PM 39.0 °F 31.0 °F 16.0 °F 39% 29.73 in 10.0 mi NW 13.8 mph 24.2 mph N/A   Clear
4:53 PM 37.9 °F 29.6 °F 16.0 °F 41% 29.72 in 10.0 mi NW 13.8 mph 19.6 mph N/A   Clear
5:53 PM 37.9 °F 30.0 °F 16.0 °F 41% 29.72 in 10.0 mi NW 12.7 mph - N/A   Clear
6:53 PM 36.0 °F 30.3 °F 15.1 °F 43% 29.70 in 10.0 mi North 6.9 mph 18.4 mph N/A   Clear
7:53 PM 34.0 °F 24.6 °F 16.0 °F 48% 29.69 in 10.0 mi NNW 13.8 mph - N/A   Clear
8:53 PM 33.1 °F 24.9 °F 14.0 °F 46% 29.69 in 10.0 mi NNE 10.4 mph - N/A   Clear
9:53 PM 30.0 °F 21.7 °F 15.1 °F 54% 29.69 in 10.0 mi North 9.2 mph - N/A   Clear
10:53 PM 28.9 °F 21.9 °F 15.1 °F 56% 29.69 in 10.0 mi North 6.9 mph - N/A   Clear
11:53 PM 27.0 °F 19.5 °F 15.1 °F 61% 29.69 in 10.0 mi North 6.9 mph - N/A   Clear